Regional Weather Roundup
Issued by NWS

Home | Current Version | Previous Version | Graphics & Text | Print | Product List | Glossary On
Versions: 1 2 3 4 5 6 7 8 9 10 11 12 13 14 15 16 17 18 19 20 21 22 23 24 25 26 27 28 29 30 31 32 33 34 35 36 37 38 39 40 41 42 43 44 45 46 47 48 49 50
000
ASUS43 KFSD 060710
RWRSD

WEATHER ROUNDUP FOR SOUTH DAKOTA
NATIONAL WEATHER SERVICE SIOUX FALLS SD
200 AM CDT MON JUL 06 2015

NOTE: "FAIR" INDICATES FEW OR NO CLOUDS BELOW 12,000 FEET WITH NO
SIGNIFICANT WEATHER AND/OR OBSTRUCTIONS TO VISIBILITY.


SDZ001>005-009-010-012>017-060800-
NORTHWEST AND NORTH CENTRAL SOUTH DAKOTA

CITY           SKY/WX    TMP DP  RH WIND       PRES   REMARKS
BUFFALO          N/A     60  53  77 N16       30.05R
FAITH            N/A     61  57  87 NW10      30.05R
MOBRIDGE       CLOUDY    67  63  87 N8        29.96R FOG
$$

SDZ012>016-024>037-041>051-057-063-072>074-060800-
SOUTHWEST AND SOUTH CENTRAL SOUTH DAKOTA

CITY           SKY/WX    TMP DP  RH WIND       PRES   REMARKS
RAPID CTY ARPT CLOUDY    60  57  89 NW14      30.10R FOG
PIERRE         LGT RAIN  64  62  93 NW12      29.95R FOG
CUSTER         CLOUDY    53  50  89 NE13      30.17R FOG
ELLSWORTH AFB  CLOUDY    60  57  89 NW13      30.09R
PHILIP         CLOUDY    64  63  96 NW5       30.03R FOG
PINE RIDGE     LGT RAIN  61  58  90 N14       30.05R
SPEARFISH      CLOUDY    57  55  94 W7        30.17R FOG
WINNER         LGT RAIN  68  65  90 NW9       29.93F
$$

SDZ004>011-016>023-039-040-060800-
NORTHEAST SOUTH DAKOTA

CITY           SKY/WX    TMP DP  RH WIND       PRES   REMARKS
ABERDEEN       CLOUDY    70  65  84 N10       29.88R
WATERTOWN      LGT RAIN  68  65  90 N16G24    29.86R
BROOKINGS      CLOUDY    70  64  83 N9G16     29.85S
SISSETON         N/A     69  66  90 NE14      29.85S
$$

SDZ017-020-022-023-036>040-048>070-060800-
SOUTHEAST SOUTH DAKOTA

CITY           SKY/WX    TMP DP  RH WIND       PRES   REMARKS
SIOUX FALLS    RAIN      70  69  97 NW7       29.83R FOG
HURON          RAIN      68  66  93 N14       29.88R FOG
CHAMBERLAIN    DRIZZLE   67  65  92 NE15      29.91S
MITCHELL       CLOUDY    70  69  97 NW7       29.88S THUNDER FOG
YANKTON        CLOUDY    70  66  88 NW16      29.82R
$$

ABBREVIATIONS USED IN REMARKS
   TC - TEMPERATURE IN CELSIUS
  WCI - WIND CHILL INDEX
   HX - HEAT INDEX
  VSB - VISIBILITY




USA.gov is the U.S. government's official web portal to all federal, state and local government web resources and services.